loading
DOY 175 | 2024-06-23T10:52:24Z

STARLINK-31876, 59938

Orbit data source: Space-Track

STARLINK-31876, 59938 is a payload satellite owned by SpaceX/Seattle (US) in LEO that was launched on Sat, 01 Jun 2024 UTC via a Falcon 9 launch vehicle from the Air Force Eastern Test Range (AFETR). Payloads include a variety of satellites, spacecraft, and rockets equipped with specific instruments for various scientific and technological missions. These include communications satellites like Starlink; space stations such as the ISS; scientific satellites like the Hubble; Earth observation satellites from companies like Planet Labs, Umbra, and HawkEye 360; GPS; miniature CubeSats for education and research; and military/defense satellites.

Loading next visibility...
Loading greatness...
STARLINK-31876 details
NORAD ID59938
COSPAR ID
2024-106S
Orbit
LEO
Last TLE update5 hours ago
Origin
Flag of USSpaceX/Seattle (US)
ManufacturerSpaceX/Seattle
BusStarlink V2M
MotorUnknown
Mass750 kg wet, ~700 kg dry
Launch date (UTC)
2024-06-01 (3 weeks ago)
Launch vehicle
Falcon 9
Launch site
Air Force Eastern Test Range (AFETR)
Object type
Payload
Rocket body
Debris
Radar Cross SectionLarge (>1 m²)
Predictive object data (real-time)
Latitude-28.48146°
Longitude-108.07263°
Altitude387.415 km
Speed7.679 km/s
Apparent Right ascension13h 56m 00s
Apparent Declination-47° 09' 45"
Sunlit
Object is in full shadow
Predictive observer data (real-time)
Local Sidereal Time22:00:20
Azimuth239.927° WSW
Elevation-47.709°
Doppler factor1
Orbital elements
Apogee381.522 km
Perigee379.59 km
Semi-major axis6,758.693 km
Eccentricity0.0001429
Inclination42.9995°
RAAN290.3921°
Arg. of periapsis265.5795°
True anomaly346.65212°
Mean anomaly346.6559°
Mean motion3.90615 °/min
BSTAR-0.0203
Period92.16 mins
Definitive object data (Epoch: 2024-06-23T06:00:00.999Z)
Latitude-40.66881°
Longitude174.86763°
Altitude389.938 km
Speed7.677 km/s
True Right ascension11h 47m 05s
True Declination-40° 29' 23"
Sunlit
Object was in daylight at TLE epoch
TLE from 5 hours ago
0 STARLINK-31876
1 59938U 24106S   24175.25001157 -.01677680  00000-0 -20300-1 0  9990
2 59938  42.9995 290.3921 0001429 265.5795 346.6559 15.63144429  3533
Epoch: 2024-06-23T06:00Z
No data available

STARLINK-31876 Visibility forecast

Observer location: 39.9160978°, -105.1181434, 0m alt.

STARLINK-31876 is not visible in the next 10 days
Span
Click to sort rows by Start time (UTC) header in descending order
Start Az.
Max El. time (UTC)
Max El. Az.
Max El.
End time (UTC)
End Az.